sat.trackr.live / text

‹ back to catalog

STARLINK-37948

NORAD 69670 · 2026-143X

PAYLOAD ACTIVE UNKNOWN

§ Identity

Operator
Country
US
Launch date
2026-06-21
Launch site
AFWTR
Launch vehicle
Mass (kg)
RCS (m²)

Purposes: comms

External: N2YO · Heavens-Above · Gunter

§ Orbital elements

Epoch: 2026-09-19T01:31:15.306240Z

Period
93.91 min
Inclination
97.2846°
Eccentricity
0.0001052
Mean motion
15.33451985 rev/d
Perigee alt
464.8 km
Apogee alt
466.2 km
Semi-major
6,843.7 km
B*
4.0777e-4
RAAN
305.2922°
Arg perigee
112.2408°
Mean anomaly
247.8947°
Rev number
1,492

§ Raw data

STARLINK-379481 69670U 26143X   26262.06337160  .00013115  00000+0  40777-3 0  99962 69670  97.2846 305.2922 0001052 112.2408 247.8947 15.33451985 14926

JSON: /api/v1/satellites/69670 · /tle

For live sub-satellite position, see the globe view (requires WebGL).

§ Visibility from observer

Set your observer location to see the next 7 days of passes ≥ 10°. The values pass through the URL so the page stays shareable.

No JS? Fill the form by hand. The geolocation button needs JavaScript.